Location: Elbart
(49.6135°N, 11.9134°E)
Time: 23:19:45
(UTC+00:00)

Cosmos 2360 Rocket - Pass Details

Date: 09 April 2020
Orbit: 834 x 845 km, 71.0° (Epoch: 29 May)

Event Time Altitude Azimuth Distance (km) Brightness Sun altitude
Rises 21:29:28 0° 334° (NNW) 3,394 6.6 -28.1°
Reaches altitude 10° 21:32:21 10° 347° (NNW) 2,458 5.5 -28.3°
Maximum altitude 21:37:00 26° 43° (NE) 1,611 3.8 -28.6°
Enters shadow 21:38:04 24° 61° (ENE) 1,667 3.7 -28.7°
